Regional Weather Roundup
Issued by NWS

Home | Current Version | Previous Version | Text Only | Print | Product List | Glossary On
Versions: 1 2 3 4 5 6 7 8 9 10 11 12 13 14 15 16 17 18 19 20 21 22 23 24 25 26 27 28 29 30 31 32 33 34 35 36 37 38 39 40 41 42 43 44 45 46 47 48 49 50
000
ASUS42 KKEY 301910
RWRKEY

FLORIDA REGIONAL WEATHER ROUNDUP FOR THE FLORIDA KEYS
NATIONAL WEATHER SERVICE KEY WEST FLORIDA
300 PM EDT THU JUL 30 2015

...SOUTH FLORIDA AND THE KEYS...

CITY           SKY/WX    TMP DP  RH WIND       PRES   REMARKS
FORT MYERS     PTSUNNY   89  75  63 W15       29.99F HX  99
SW REGIONAL AP PTSUNNY   89  73  59 SW15      29.99F HX  97
NAPLES         PTSUNNY   88  79  74 SW15      30.00F HX 103
MIAMI          PTSUNNY   92  66  42 SW8       30.00F HX  94
WEST KENDALL   PTSUNNY   93  69  45 W10       30.00F HX  98
HOMESTEAD      PTSUNNY   92  75  57 SW10      30.00F HX 102
MARATHON       CLOUDY    91  74  57 S6        30.02F HX 100
BOCA CHICA NAS PTSUNNY   89  73  59 SW7       30.02F HX  97
KEY WEST INTL  PTSUNNY   88  75  65 SW7       30.03F HX  97

...INTERNATIONAL WEATHER...

CITY           SKY/WX    TMP DP  RH WIND       PRES   REMARKS
NASSAU BAHAMAS PTSUNNY   88  75  66 S16       30.05F HX  97
CANCUN MEXICO  SUNNY     91  73  55 SE12      30.02F HX 100
COZUMEL MEXICO PTSUNNY   86  75  70 E8        30.03S HX  95

ADJACENT COASTAL WATERS...

STATION/POSITION TIME  SKY/WX   TEMP    WIND        PRES    WAVE
                                AIR SEA DIR/SP/G            HT/PER
                 (UTC)          (F)     (DEG/KT/KT) (MB)    (FT/S)
PULASKI SHOAL LI 1800            86     210/  4/  5 1017.5F
SAND KEY         1850            85     260/  4/  6 1016.9F
SOMBRERO KEY     1900            86     230/  6/  7 1017.3F
LONG KEY         1900            87 90  220/  6/  7 1017.3F
MOLASSES REEF    1900            86 87  200/ 10/ 11 1016.3F
FOWEY ROCKS      NOT AVBL

$$



USA.gov is the U.S. government's official web portal to all federal, state and local government web resources and services.